GFSMW_sfc_dewp_093.txt.gz
Dewpoint
19 23 29 33 33 35 40 50 57 66 66 64 64 64 64 63 64 64 64 64 64 63 63 62 63 63 61 61 61 61 60 59 58 55 56 58 58 55 50 51 51 52 55
17 20 24 31 36 37 41 51 55 61 64 63 63 63 63 62 63 64 63 64 63 63 62 62 62 61 60 60 60 60 59 59 58 54 53 53 55 55 52 50 51 55 51
24 24 24 29 36 39 45 49 53 59 64 64 63 62 62 62 62 62 63 63 63 63 63 62 62 60 60 60 60 60 59 58 58 57 52 51 49 53 53 54 50 55 52
35 34 29 29 33 39 48 51 53 59 62 63 60 61 60 59 60 61 62 62 62 62 62 62 61 60 60 60 60 60 59 58 56 57 54 54 50 50 51 53 52 51 52
39 38 33 31 30 38 47 53 54 57 61 62 60 61 60 59 59 61 62 62 62 61 62 61 61 60 60 60 60 60 60 59 57 55 55 55 52 54 50 49 51 51 51
41 41 37 35 30 35 51 55 56 57 59 60 60 60 60 58 55 60 61 61 61 61 61 61 60 60 60 60 60 60 59 59 59 57 56 54 52 50 50 48 51 51 51
44 43 41 34 34 39 53 57 56 56 58 60 60 60 59 58 57 58 60 59 59 59 60 60 60 60 60 60 60 60 60 60 59 59 56 56 55 53 50 47 50 49 50
46 46 44 44 44 48 56 56 55 55 57 59 59 58 57 57 57 60 60 59 57 58 59 60 60 60 60 60 60 60 60 60 60 58 58 57 57 55 52 48 47 48 46
46 49 48 45 49 54 56 57 56 55 57 58 59 57 57 57 58 59 59 58 57 57 57 58 59 59 59 59 59 58 58 59 59 59 59 58 56 57 55 54 50 50 46
46 50 50 45 50 55 55 57 57 56 56 57 57 56 57 57 58 59 58 57 57 57 56 57 57 58 59 59 58 57 58 58 59 58 58 57 56 57 57 54 56 55 51
45 47 51 51 51 55 55 56 57 56 56 55 56 57 56 57 58 59 59 57 57 57 56 57 57 57 57 58 58 58 57 56 56 56 56 56 56 56 57 59 57 56 56
43 44 46 52 54 54 55 55 57 56 56 55 55 56 56 57 57 57 58 58 56 56 56 56 55 55 54 54 53 53 53 53 54 55 55 55 54 55 56 58 57 57 56
41 41 42 45 52 53 54 55 55 55 55 54 55 56 55 56 56 57 58 58 57 57 56 55 55 53 53 53 53 52 52 53 52 52 53 52 54 55 55 56 55 56 54
37 38 39 41 43 50 54 55 55 55 54 54 54 54 56 56 56 57 58 58 58 58 58 57 57 56 55 54 53 53 52 52 52 53 53 52 54 54 55 55 55 54 53
35 35 37 38 39 41 45 54 55 55 55 55 53 55 55 56 57 57 57 57 58 58 58 58 58 58 57 56 55 54 54 53 51 51 52 53 54 50 52 55 55 55 54
34 33 34 35 36 38 40 44 50 54 55 54 54 54 55 55 56 56 57 56 56 56 57 57 57 58 43 37 39 51 55 55 55 54 54 54 48 48 45 46 45 48 54
33 32 32 34 35 35 37 38 42 45 45 45 46 48 50 51 51 54 53 53 55 56 52 51 45 41 38 36 38 38 53 55 51 50 49 54 45 43 48 45 39 36 36
31 31 31 33 34 34 35 36 36 38 39 39 40 42 43 44 44 44 43 42 41 41 41 40 39 38 35 36 37 37 48 40 37 37 38 39 38 36 38 43 36 33 32
30 32 33 32 32 33 34 33 33 33 34 35 36 37 38 38 38 37 37 37 36 35 34 34 34 34 34 35 37 42 39 35 33 32 33 33 33 34 36 39 33 32 31
30 30 32 31 32 32 32 32 31 32 32 33 33 34 35 34 34 34 33 33 32 32 31 30 31 32 32 34 35 35 33 31 30 31 31 32 32 33 36 35 32 29 29
30 29 29 28 30 32 31 30 30 30 32 34 34 34 34 33 33 33 33 32 32 31 30 30 30 30 31 32 33 33 31 31 29 29 29 31 31 32 32 32 30 29 30
29 29 28 28 29 31 31 30 29 32 32 33 32 32 33 33 33 33 33 33 32 32 31 30 30 30 29 30 31 32 32 31 29 29 29 30 29 30 30 31 30 30 32
30 29 28 27 28 29 31 29 31 32 32 30 30 30 32 31 30 30 32 32 32 31 30 30 30 30 32 30 28 28 29 29 29 30 29 28 28 29 28 28 29 30 32
25 27 26 26 26 28 28 31 32 33 31 31 29 28 27 27 28 26 26 26 29 29 29 29 29 29 28 30 32 32 32 29 30 30 31 29 28 28 28 30 30 30 29
26 26 25 25 25 26 27 29 31 33 30 29 30 29 26 24 22 23 25 25 26 27 27 26 27 27 26 26 27 29 30 31 31 32 31 30 29 28 27 26 25 24 24
21 21 22 22 22 23 25 26 28 30 29 28 28 28 27 27 25 21 20 24 24 24 24 26 26 26 25 24 24 25 26 27 28 28 27 26 27 25 23 23 21 20 18

GFSMW_sfc_dewp_096.txt.gz
Dewpoint
21 22 33 40 41 43 45 51 62 68 67 66 65 65 64 64 65 66 66 65 65 64 64 63 63 63 62 62 62 61 60 60 61 59 56 57 54 52 53 55 55 55 55
18 20 24 37 44 42 45 51 58 67 66 65 65 64 63 64 64 64 64 64 64 64 63 63 62 62 62 61 61 60 59 60 60 57 52 52 53 55 52 54 55 54 55
22 27 31 36 41 45 49 50 54 66 66 65 64 63 63 64 64 63 63 63 64 63 63 63 62 62 61 61 61 60 59 58 59 59 51 51 49 52 53 53 52 55 55
38 38 38 39 41 45 50 49 52 56 66 64 63 63 62 61 61 61 62 62 63 63 63 62 62 62 61 61 60 61 59 59 57 58 53 52 52 49 50 53 53 55 53
42 42 42 41 38 41 52 53 53 54 64 64 63 63 61 61 61 61 61 61 62 62 62 62 62 61 61 61 60 60 59 59 58 56 54 52 54 52 50 49 51 53 53
43 43 44 43 39 42 50 54 54 56 63 63 63 63 61 60 59 60 61 61 61 61 61 62 61 61 60 60 60 60 60 59 58 56 54 51 52 51 51 50 49 50 51
46 48 44 43 41 42 51 56 54 55 62 62 62 63 61 61 60 60 60 61 60 60 61 61 61 60 60 60 60 60 60 59 58 57 55 54 53 54 53 52 50 50 50
46 48 50 50 47 47 55 56 55 55 60 60 61 61 61 60 59 59 61 60 59 59 61 60 60 60 60 60 60 60 59 59 59 58 57 57 56 55 54 51 51 49 51
45 47 49 52 49 57 58 58 56 55 58 60 60 60 60 59 59 60 60 59 58 58 59 60 60 60 59 60 60 59 58 58 59 58 58 57 57 56 56 55 53 50 47
44 45 47 49 54 56 57 58 59 57 59 59 59 59 58 58 60 59 58 57 58 57 58 58 59 59 59 59 59 59 59 58 59 58 57 57 56 56 56 56 56 55 51
42 43 43 46 49 56 55 56 57 58 58 58 58 58 58 58 59 59 58 57 57 57 56 57 57 59 59 59 59 59 58 58 58 58 57 56 56 56 56 56 56 55 54
40 40 41 41 42 48 54 55 56 57 58 57 57 58 58 58 59 58 58 57 56 56 57 57 57 56 57 59 58 58 58 57 57 56 56 56 57 56 54 56 55 55 55
38 37 38 39 39 42 47 55 56 56 57 56 57 57 57 57 57 58 58 56 56 56 56 56 55 54 54 54 56 56 55 55 55 55 55 55 55 54 54 54 56 55 54
35 35 36 36 37 39 40 44 56 56 56 56 56 56 56 56 57 57 58 57 56 56 55 55 55 54 54 54 54 53 53 53 53 54 53 53 54 53 54 55 55 54 54
33 33 33 35 35 36 37 40 43 56 57 56 55 56 57 57 57 58 58 58 57 56 56 56 55 54 54 54 53 53 53 53 53 54 54 54 51 48 51 53 54 54 54
30 31 31 33 33 34 35 37 39 44 56 53 54 56 56 57 57 57 58 58 58 58 57 57 57 54 41 38 41 51 54 54 54 52 52 52 47 48 45 43 38 42 52
29 29 30 31 32 33 34 35 36 40 44 46 47 49 50 50 49 49 48 47 49 47 45 43 41 39 38 37 39 43 54 53 51 50 50 49 43 43 46 37 35 35 35
28 28 29 30 31 32 33 34 34 35 37 38 40 42 43 42 42 41 40 40 40 39 39 38 38 37 36 37 38 41 41 38 36 36 38 39 38 36 43 36 33 32 32
29 29 29 31 32 31 32 32 32 32 33 34 35 36 38 37 36 35 35 35 34 33 33 33 33 34 34 36 37 39 36 33 32 32 34 34 34 35 40 35 32 30 30
29 28 28 28 30 31 32 31 30 31 31 32 34 34 34 34 33 33 33 33 32 31 30 30 31 32 33 34 35 34 33 31 31 31 31 33 33 36 35 33 31 29 29
29 29 28 27 28 31 31 30 29 29 31 32 31 32 34 33 33 33 32 32 31 30 29 28 29 30 31 33 33 33 31 30 29 29 30 31 32 32 33 32 31 29 31
28 28 27 27 28 29 31 29 29 30 30 29 30 30 30 30 32 34 33 33 32 31 31 30 29 29 29 31 32 32 32 31 29 28 29 30 31 31 32 31 32 32 32
27 28 26 26 27 28 29 29 30 31 30 28 26 26 28 29 29 28 29 31 32 31 30 28 27 27 31 29 30 30 30 30 29 29 30 30 29 29 28 29 29 29 30
26 27 26 25 25 27 27 29 31 31 31 28 27 25 25 25 26 26 26 26 28 26 28 27 25 25 27 29 30 31 31 30 30 29 29 28 27 27 27 27 28 27 27
26 26 25 25 25 26 28 28 30 31 29 29 29 27 25 24 23 24 24 24 26 27 25 24 25 24 24 27 29 29 29 29 29 28 28 27 26 25 24 22 21 21 22
21 20 20 20 21 23 24 26 27 27 29 28 27 27 28 25 23 22 21 25 26 26 26 25 24 25 25 26 27 27 28 28 27 26 25 24 23 22 21 20 18 18 17

GFSMW_sfc_dewp_102.txt.gz
Dewpoint
20 23 24 27 27 30 31 51 64 66 67 67 66 65 65 65 65 65 65 65 64 64 63 63 63 63 63 62 62 61 61 60 61 60 59 59 59 60 59 59 58 57 57
12 14 17 20 28 29 32 47 62 66 67 66 66 65 65 64 65 65 65 66 65 64 64 63 63 63 63 62 62 61 60 60 61 58 57 54 56 56 59 57 57 56 56
9 12 14 17 20 28 32 46 59 65 66 66 66 64 64 63 62 64 65 65 65 65 64 64 63 63 63 61 61 61 60 59 60 59 56 53 52 54 56 56 56 56 56
12 29 43 48 48 40 34 44 56 64 65 66 65 64 63 62 63 63 64 64 64 64 64 63 63 63 63 62 61 61 60 59 58 58 59 57 53 52 51 55 55 55 55
47 49 49 50 51 51 51 60 61 64 65 65 64 63 63 62 61 62 63 63 64 63 63 63 63 63 63 62 61 61 60 60 58 58 57 57 52 51 52 51 53 54 54
45 46 48 48 49 52 55 56 65 65 65 64 64 63 62 61 61 62 62 62 63 63 63 62 62 62 62 62 61 61 60 60 59 59 57 56 51 51 50 49 52 52 53
44 43 44 45 46 48 54 50 65 64 64 64 63 62 61 61 61 61 61 61 61 61 62 62 62 62 62 61 61 61 60 60 59 58 58 56 53 50 50 50 50 50 51
41 41 42 43 44 45 47 55 60 63 63 62 62 62 62 61 61 60 60 60 60 60 61 61 61 61 61 61 61 61 60 60 59 58 58 57 55 52 51 50 49 49 50
37 36 38 40 42 42 44 47 56 58 61 61 61 61 61 61 60 59 60 60 60 59 60 60 60 61 61 61 61 60 60 60 59 59 59 58 56 54 54 52 51 49 48
33 34 36 36 39 40 42 45 47 52 58 60 61 61 61 60 59 60 60 59 58 59 59 59 60 60 60 60 60 60 60 59 59 59 58 58 57 57 56 55 53 51 49
31 31 32 35 36 38 39 41 43 46 51 58 58 59 59 59 59 59 58 57 57 56 57 58 59 59 59 60 60 60 59 59 59 59 58 57 58 57 57 56 55 54 52
29 29 30 32 34 35 36 39 41 41 45 54 57 58 59 59 58 58 57 57 55 56 56 55 57 57 58 59 59 59 59 59 58 58 58 58 58 56 56 56 55 54 53
27 28 29 30 31 33 34 35 38 40 43 47 57 58 58 58 58 57 57 56 56 56 56 56 56 56 56 57 58 59 58 58 58 58 58 57 57 56 56 55 55 55 54
26 27 28 29 30 32 33 34 36 38 41 46 57 57 58 58 58 57 56 56 56 56 56 56 56 55 55 56 58 58 58 58 58 58 58 58 57 56 56 55 55 55 54
25 26 27 28 29 31 32 33 34 37 40 40 44 51 58 58 58 57 56 56 56 56 56 55 55 55 51 46 50 58 58 57 57 58 58 58 55 50 53 56 55 55 54
24 25 25 27 28 30 31 32 33 34 36 37 37 40 47 56 56 57 57 55 52 53 53 53 51 47 43 38 40 50 55 56 56 56 56 54 49 48 45 43 40 48 54
23 24 25 27 29 29 29 30 32 33 33 34 34 36 38 42 43 45 43 43 42 41 40 40 40 40 39 38 40 42 51 47 49 51 53 49 46 45 40 36 36 35 35
23 24 25 26 29 29 28 28 28 30 31 32 32 34 35 35 36 37 36 36 36 35 35 35 36 36 37 37 38 38 39 38 37 38 41 44 43 42 41 36 34 33 33
25 25 26 27 28 29 29 27 26 26 27 29 31 32 34 33 32 32 32 33 32 32 32 33 33 34 34 35 36 36 35 34 33 35 36 38 38 37 38 34 32 31 31
25 25 26 25 26 29 28 26 25 25 25 26 28 30 31 32 32 32 31 31 31 30 30 30 31 33 32 34 34 34 33 32 32 32 33 34 34 35 35 33 32 30 30
24 24 23 24 26 28 28 25 24 23 26 27 27 27 28 30 31 31 31 31 30 29 29 29 30 31 32 32 33 33 31 31 31 31 31 32 33 34 33 32 32 30 31
23 23 22 22 24 26 26 26 26 27 26 25 25 25 26 27 28 29 29 30 29 28 28 28 28 29 31 31 32 32 31 31 29 29 31 32 33 32 32 31 32 31 30
22 22 21 21 23 24 25 24 28 29 26 24 23 24 25 25 26 26 26 26 27 27 27 27 27 28 29 30 31 30 29 29 27 27 28 28 28 27 27 28 29 29 29
21 21 20 19 20 23 24 26 26 28 28 25 24 23 23 23 25 25 26 25 24 25 25 26 27 28 29 29 30 30 30 29 28 26 25 25 25 24 24 24 25 24 24
18 18 18 18 19 20 21 23 25 25 25 25 26 24 23 22 22 24 25 25 27 27 25 26 27 27 27 29 31 29 28 28 27 26 25 22 21 21 21 20 20 21 20
14 14 14 16 17 18 19 21 23 25 23 24 24 25 25 23 22 21 21 26 27 28 29 29 29 28 30 30 30 29 28 27 24 22 20 19 19 18 17 17 17 18 17

GFSMW_sfc_dewp_105.txt.gz
Dewpoint
15 19 22 25 26 27 29 38 56 66 66 66 66 65 64 65 65 66 66 65 65 64 64 63 63 63 62 62 62 61 61 60 60 59 59 60 61 61 61 61 61 60 58
15 16 16 18 18 22 31 38 54 63 66 66 66 65 65 65 65 65 65 65 65 64 64 64 63 63 62 62 62 61 60 60 60 58 57 55 55 59 60 61 60 59 58
24 13 13 16 26 27 26 37 51 60 65 66 66 63 62 63 64 64 65 65 65 64 64 64 63 63 63 62 62 61 60 59 61 60 57 53 52 55 58 58 59 59 57
46 44 48 50 50 51 52 42 45 59 64 65 65 63 63 62 63 64 64 65 65 64 64 63 63 63 63 62 62 62 61 60 58 60 59 57 55 53 52 56 57 57 56
44 44 46 48 48 50 53 54 45 56 62 65 64 64 62 62 62 63 63 64 64 64 64 63 63 63 63 62 62 61 61 61 59 59 58 57 57 56 53 52 54 55 55
40 41 43 45 46 47 48 54 58 59 63 65 64 63 62 62 62 62 63 63 63 64 64 63 63 63 62 62 62 62 61 61 60 60 58 57 54 53 53 52 53 53 54
38 40 41 42 43 43 44 48 57 63 64 65 64 64 63 62 61 62 62 62 62 62 62 63 62 62 62 62 62 61 61 60 60 59 58 57 56 54 53 52 53 53 53
35 37 39 40 40 41 42 44 48 52 64 64 64 64 62 62 61 61 62 61 61 62 62 62 62 62 62 62 62 61 61 61 60 59 59 58 57 55 53 53 52 50 51
33 33 35 37 39 40 40 42 44 48 52 63 63 63 61 60 61 61 61 61 60 60 61 62 62 61 62 61 61 61 60 60 60 59 59 58 57 56 55 52 52 50 49
32 31 32 34 36 38 39 40 43 44 48 56 62 61 60 60 59 59 59 59 58 59 59 59 60 60 61 61 61 60 60 60 60 60 59 59 58 56 54 55 53 52 50
30 28 29 32 33 36 37 39 40 43 45 48 56 60 59 59 59 59 58 59 59 59 59 59 58 59 60 60 60 60 59 59 59 59 59 58 58 56 55 55 55 53 52
26 26 28 30 32 33 34 36 39 41 43 46 50 59 59 59 58 58 58 57 57 57 58 57 57 58 58 59 59 59 59 59 58 59 58 58 58 57 56 55 54 53 53
25 25 26 28 29 31 33 34 35 39 42 44 50 58 58 57 57 57 57 57 56 56 55 56 56 56 56 56 56 57 58 59 58 58 58 58 58 57 56 56 55 55 53
23 25 25 27 29 30 31 32 34 36 39 41 42 46 54 58 57 57 57 56 56 55 55 56 56 55 55 55 55 56 57 57 58 59 59 58 58 57 56 55 55 55 54
22 24 25 26 28 28 29 30 32 34 36 38 38 40 46 57 57 57 56 56 56 56 56 56 55 54 51 45 43 48 56 57 57 58 58 58 56 52 54 55 55 55 54
22 23 24 25 27 28 28 28 29 31 34 34 35 37 38 40 43 51 55 52 49 48 48 46 47 45 43 37 38 42 53 56 57 56 57 58 51 49 46 47 47 52 54
22 23 24 25 28 28 27 26 27 28 30 31 33 34 35 35 35 37 39 40 41 40 39 39 39 39 37 37 39 41 46 45 43 47 53 51 46 44 41 37 37 35 36
22 23 24 25 28 27 26 26 25 26 26 27 29 32 33 32 32 32 33 34 35 35 35 35 35 35 35 36 37 37 39 37 37 38 40 45 44 43 41 38 35 33 33
24 24 25 26 27 28 26 25 24 24 25 26 26 28 31 31 31 31 31 31 32 32 32 33 33 33 33 35 35 36 35 34 34 34 36 37 38 37 40 37 33 32 32
24 23 24 24 25 27 27 24 23 23 23 25 26 27 28 29 30 30 30 31 31 30 30 30 31 32 32 34 34 34 33 32 32 33 32 34 34 35 35 34 33 31 30
23 22 23 23 24 26 26 25 24 23 23 24 25 26 27 28 28 29 30 30 30 30 30 29 30 30 31 32 33 33 31 31 31 31 31 32 33 34 34 33 32 30 31
20 20 19 20 23 25 24 23 25 26 23 22 22 23 25 26 27 27 27 28 28 28 29 28 28 29 30 31 31 31 30 30 28 28 29 30 31 31 31 30 31 30 29
18 19 18 18 20 22 24 22 24 26 23 22 21 22 23 25 26 26 26 26 27 27 27 28 27 28 29 30 30 29 28 28 26 27 27 27 28 28 27 27 27 27 26
16 17 17 17 17 19 21 23 24 23 24 23 22 21 21 22 24 25 25 25 26 26 26 26 26 27 28 28 28 28 27 27 26 25 25 25 25 23 24 24 24 24 24
14 15 16 17 17 18 19 20 23 23 23 23 24 23 22 21 21 22 24 25 26 28 26 26 26 25 25 27 29 27 25 24 24 23 22 21 20 20 20 20 21 21 21
13 13 14 14 15 16 17 18 21 23 22 22 22 22 22 21 21 20 20 24 25 27 28 28 27 27 28 29 28 27 26 26 24 20 18 17 17 17 17 17 17 17 17